Change the Weather History Date:

Thursday, November 22, 2012

  Actual Average (KAND) Record (KAND)
Temperature  
Mean Temperature 49 °F -  
Max Temperature 66 °F 60 °F 78 °F (1958)
Min Temperature 32 °F 37 °F 17 °F (2008)
Degree Days  
Heating Degree Days 16    
Moisture  
Dew Point 33 °F    
Average Humidity 65    
Maximum Humidity 96    
Minimum Humidity 27    
Precipitation  
Precipitation 0.00 in - - ()
Sea Level Pressure  
Sea Level Pressure 30.23 in    
Wind  
Wind Speed 1 mph (NNE)    
Max Wind Speed 7 mph    
Max Gust Speed -    
Visibility 10 miles    
Events      
Averages and records for this station are not official NWS values.
T = Trace of Precipitation, MM = Missing Value Source: NWS Daily Summary

Daily Weather History Graph

Daily Weather History Graph

Search for Another Location

Airport or City:

Trip Planner

Search our weather history database for the weather conditions in past years. The results will help you decide how hot, cold, wet, or windy it might be!

Date:

Astronomy

Nov. 22, 2012 Rise Set
Actual Time 7:08 AM EST 5:20 PM EST
Civil Twilight 6:41 AM EST 5:47 PM EST
Nautical Twilight 6:11 AM EST 6:18 PM EST
Astronomical Twilight 5:41 AM EST 6:48 PM EST
Moon 1:54 PM EST (11/22) 1:40 AM EST (11/22)
Length of Visible Light 11h 06m
Length of Day
10h 12m
Waxing Gibbous, 71% of the Moon is Illuminated
Nov 22
Waxing Gibbous
Nov 28
Full
Dec 6
Last Quarter
Dec 13
New
Dec 20
First Quarter

Hourly Weather History & Observations

Time (EST) Temp. Windchill Dew Point Humidity Pressure Visibility Wind Dir Wind Speed Gust Speed Precip Events Conditions
12:56 AM 37.0 °F - 34.0 °F 89% 30.19 in 10.0 mi Calm Calm - N/A   Clear
1:56 AM 36.0 °F - 33.1 °F 89% 30.19 in 10.0 mi Calm Calm - N/A   Clear
2:56 AM 35.1 °F - 33.1 °F 92% 30.21 in 10.0 mi Calm Calm - N/A   Clear
3:56 AM 34.0 °F - 32.0 °F 92% 30.22 in 10.0 mi Calm Calm - N/A   Clear
4:56 AM 33.1 °F - 30.9 °F 92% 30.23 in 9.0 mi Calm Calm - N/A   Clear
5:56 AM 32.0 °F 28.7 °F 30.9 °F 96% 30.25 in 10.0 mi North 3.5 mph - N/A   Clear
6:56 AM 33.1 °F - 30.0 °F 89% 30.26 in 10.0 mi Calm Calm - N/A   Clear
7:56 AM 37.0 °F - 33.1 °F 86% 30.28 in 10.0 mi Calm Calm - N/A   Clear
8:56 AM 46.0 °F 43.9 °F 36.0 °F 68% 30.29 in 10.0 mi NNE 4.6 mph - N/A   Clear
9:56 AM 53.1 °F - 35.1 °F 50% 30.30 in 10.0 mi NNE 5.8 mph - N/A   Clear
10:56 AM 57.0 °F - 33.1 °F 40% 30.29 in 10.0 mi North 3.5 mph - N/A   Clear
11:56 AM 60.1 °F - 32.0 °F 35% 30.26 in 10.0 mi Variable 3.5 mph - N/A   Clear
12:56 PM 63.0 °F - 33.1 °F 33% 30.23 in 10.0 mi NNE 5.8 mph - N/A   Clear
1:56 PM 64.9 °F - 33.1 °F 31% 30.20 in 10.0 mi Variable 6.9 mph - N/A   Clear
2:56 PM 66.0 °F - 32.0 °F 28% 30.19 in 10.0 mi Variable 3.5 mph - N/A   Clear
3:56 PM 66.0 °F - 30.9 °F 27% 30.19 in 10.0 mi North 3.5 mph - N/A   Clear
4:56 PM 63.0 °F - 33.1 °F 33% 30.19 in 10.0 mi Calm Calm - N/A   Clear
5:56 PM 54.0 °F - 34.0 °F 47% 30.19 in 10.0 mi Calm Calm - N/A   Clear
6:56 PM 48.0 °F - 34.0 °F 58% 30.21 in 10.0 mi Calm Calm - N/A   Clear
7:56 PM 45.0 °F - 35.1 °F 68% 30.22 in 10.0 mi Calm Calm - N/A   Clear
8:56 PM 44.1 °F - 35.1 °F 71% 30.22 in 10.0 mi Calm Calm - N/A   Clear
9:56 PM 39.9 °F - 34.0 °F 79% 30.22 in 10.0 mi Calm Calm - N/A   Clear
10:56 PM 39.0 °F - 34.0 °F 82% 30.21 in 10.0 mi Calm Calm - N/A   Clear
11:56 PM 37.9 °F - 33.1 °F 83% 30.20 in 10.0 mi Calm Calm - N/A   Clear